星链-37509(STARLINK-37509)

导读

STARLINK-37509(NORAD编号69444)是美国太空探索技术公司(SpaceX)研发的Starlink V1.0版低轨通信卫星,隶属于星链全球互联网星座。该卫星运行于高度约483公里、倾角43°的近地轨道,轨道周期94.27分钟,最大亮度可达2.5等,具备全球覆盖能力。主要用于为偏远地区及航空、军事等领域提供高速低延迟的互联网通信服务,是星链星座组网、缩小全球数字鸿沟的重要组成部分,截至2026年上半年在轨运行状态稳定。

基本信息
目录编号:
69444
目录名称:
STARLINK-37509
国际标识:
2026-127B
轨道中心:
EARTH
卫星名称:
星链-37509
卫星全名:
星链-37509(STARLINK-37509)
卫星状态:
在轨 (已飞行89 天)
发射日期:
2026-06-08 UTC
国别 :
美国 (US)
星等 :
--
轨道信息
数据来源 国际轨道数据 AOE轨道数据
星历时间 2026-09-05T11:19:20+0800
7小时前
查看轨道信息
2026-09-04T00:00:00+0800
1天前
查看轨道信息
半长轴 6840.86km 6840.823km
偏心率 0.0001312 0.0001269
轨道倾角 53.158° 53.156°
近地点辐角 91.327° 65.587°
升交点赤经 237.544° 244.426°
平近点角 268.788° 80.299°
近地点 461.825km 461.817km
远地点 463.621km 463.555km
周期 93.848分钟 93.847分钟
每日圈数 15.343935 15.34406
详细信息
固有亮度:
5
最大亮度:
2.5
卫星平台:
Starlink V1.0
覆盖范围:
全球
运营商:
太空探索技术公司
运营商所在国:
美国
制造商(研发单位):
太空探索技术公司
制造商所在国:
美国
使用方式:
暂无
卫星简介
Starlink 计划是 SpaceX 推出的全球卫星互联网项目,通过发射低轨道卫星,为全球尤其是偏远地区提供高速、低延迟的互联网服务。自 2019 年起,Starlink 已部署数千颗卫星,旨在缩小全球数字鸿沟,推动互联网普及。该项目还为军事、航空等行业提供通信支持,带来广泛经济效益。
2D轨道图
3D轨道图
轨道高度分析图
轨道倾角分析图
轨道综合分析图
查看轨道综合分析图
交会数据列表
事件ID 空间交会对象 最接近时刻(TCA) 交会距离 交会风险概率(CRP) 交会风险指数(CRI) 操作
CDM_260831-070504-377106-944422
OBJECT P (43771)
2026-08-31T
07:05:50+0000
1.559 km
极远距离
3.889162E-6 低风险 0.47
CDM_260905-183105-175306-944421
2026-09-05T
18:31:44+0000
2.082 km
极远距离
9.536412E-7 极低风险 0.35